PIMOHWEATHER Station Historical Data
Daily Summary for July 26, 2020 Units:  Metric    English   Both
Daily Weekly Monthly Yearly
  High: Low: Average:
Temperature: 36.0 °C 25.0 °C 29.2 °C
Dew Point: 27.0 °C 23.0 °C 25.4 °C
Humidity: 93% 61% 81%
Wind Speed: 21km/h 0km/h 6.4km/h
Wind Gust: 32km/h - -
Wind- - East
Pressure: 1014.5 hPa 1009.7 hPa -
Precipitation: 6.91 mm    
 
 
Tabular Data for July 26, 2020
Time Temperature Dew Point Pressure Wind Wind Speed Wind Gust Humidity Rainfall Rate (Hourly) solar
00:04 26.0 °C 24.0 °C 1014.5 hPa Calm     85% 0.00 mm 0.00 W/m2
00:09 26.0 °C 24.0 °C 1014.4 hPa East 3 km/h 4 km/h 86% 0.00 mm 0.00 W/m2
00:14 26.0 °C 24.0 °C 1014.4 hPa East 3 km/h 4 km/h 86% 0.00 mm 0.00 W/m2
00:19 26.0 °C 24.0 °C 1014.5 hPa East 3 km/h 4 km/h 87% 0.00 mm 0.00 W/m2
00:24 26.0 °C 24.0 °C 1014.5 hPa East 6 km/h 8 km/h 87% 0.00 mm 0.00 W/m2
00:29 26.0 °C 24.0 °C 1014.2 hPa East 8 km/h 12 km/h 88% 0.00 mm 0.00 W/m2
00:34 26.0 °C 24.0 °C 1014.4 hPa East 6 km/h 8 km/h 88% 0.00 mm 0.00 W/m2
00:39 26.0 °C 24.0 °C 1014.3 hPa East 6 km/h 8 km/h 88% 0.00 mm 0.00 W/m2
00:44 26.0 °C 24.0 °C 1014.3 hPa East 6 km/h 8 km/h 87% 0.00 mm 0.00 W/m2
00:49 26.0 °C 24.0 °C 1014.3 hPa East 6 km/h 8 km/h 88% 0.00 mm 0.00 W/m2
00:54 26.0 °C 24.0 °C 1014.1 hPa East 7 km/h 8 km/h 88% 0.00 mm 0.00 W/m2
00:59 26.0 °C 24.0 °C 1013.8 hPa East 7 km/h 8 km/h 88% 0.00 mm 0.00 W/m2
01:04 26.0 °C 24.0 °C 1013.7 hPa East 6 km/h 8 km/h 88% 0.00 mm 0.00 W/m2
01:09 26.0 °C 24.0 °C 1014.0 hPa East 6 km/h 12 km/h 88% 0.00 mm 0.00 W/m2
01:14 26.0 °C 23.0 °C 1014.0 hPa East 8 km/h 12 km/h 88% 0.00 mm 0.00 W/m2
01:19 26.0 °C 24.0 °C 1014.0 hPa East 3 km/h 4 km/h 88% 0.00 mm 0.00 W/m2
01:29 26.0 °C 24.0 °C 1013.6 hPa East 4 km/h 8 km/h 88% 0.00 mm 0.00 W/m2
01:34 26.0 °C 24.0 °C 1013.7 hPa East 6 km/h 8 km/h 88% 0.00 mm 0.00 W/m2
01:39 26.0 °C 24.0 °C 1013.6 hPa East 5 km/h 8 km/h 89% 0.00 mm 0.00 W/m2
01:44 26.0 °C 24.0 °C 1013.6 hPa East 7 km/h 8 km/h 89% 0.00 mm 0.00 W/m2
01:49 26.0 °C 24.0 °C 1013.3 hPa East 8 km/h 12 km/h 89% 0.00 mm 0.00 W/m2
01:54 26.0 °C 24.0 °C 1013.3 hPa East 8 km/h 12 km/h 89% 0.00 mm 0.00 W/m2
01:59 26.0 °C 24.0 °C 1013.1 hPa East 8 km/h 8 km/h 90% 0.00 mm 0.00 W/m2
02:04 26.0 °C 24.0 °C 1013.1 hPa East 8 km/h 8 km/h 90% 0.00 mm 0.00 W/m2
02:09 25.0 °C 24.0 °C 1013.1 hPa East 9 km/h 12 km/h 90% 0.00 mm 0.00 W/m2
02:14 25.0 °C 24.0 °C 1013.1 hPa East 6 km/h 8 km/h 91% 0.00 mm 0.00 W/m2
02:19 25.0 °C 24.0 °C 1013.1 hPa East 6 km/h 8 km/h 91% 0.00 mm 0.00 W/m2
02:24 25.0 °C 24.0 °C 1013.0 hPa East 5 km/h 8 km/h 91% 0.00 mm 0.00 W/m2
02:29 25.0 °C 24.0 °C 1013.0 hPa East 5 km/h 8 km/h 91% 0.00 mm 0.00 W/m2
02:34 25.0 °C 24.0 °C 1013.1 hPa East 8 km/h 8 km/h 91% 0.00 mm 0.00 W/m2
02:39 25.0 °C 23.0 °C 1012.9 hPa East 6 km/h 8 km/h 91% 0.00 mm 0.00 W/m2
02:44 25.0 °C 24.0 °C 1012.8 hPa East 6 km/h 8 km/h 91% 0.00 mm 0.00 W/m2
02:49 25.0 °C 23.0 °C 1012.8 hPa East 9 km/h 12 km/h 91% 0.00 mm 0.00 W/m2
02:54 25.0 °C 23.0 °C 1012.6 hPa East 8 km/h 8 km/h 91% 0.00 mm 0.00 W/m2
02:59 25.0 °C 23.0 °C 1012.6 hPa East 9 km/h 16 km/h 91% 0.00 mm 0.00 W/m2
03:04 25.0 °C 23.0 °C 1012.5 hPa East 11 km/h 12 km/h 91% 0.00 mm 0.00 W/m2
03:09 25.0 °C 23.0 °C 1012.5 hPa East 9 km/h 12 km/h 92% 0.00 mm 0.00 W/m2
03:14 25.0 °C 23.0 °C 1012.5 hPa East 7 km/h 8 km/h 92% 0.00 mm 0.00 W/m2
03:17 25.0 °C 23.0 °C 1012.6 hPa East 10 km/h 12 km/h 92% 0.00 mm 0.00 W/m2
03:24 25.0 °C 23.0 °C 1012.4 hPa East 10 km/h 16 km/h 92% 0.00 mm 0.00 W/m2
03:29 25.0 °C 24.0 °C 1012.4 hPa East 8 km/h 8 km/h 92% 0.00 mm 0.00 W/m2
03:34 25.0 °C 24.0 °C 1012.4 hPa East 8 km/h 12 km/h 92% 0.00 mm 0.00 W/m2
03:39 25.0 °C 23.0 °C 1012.5 hPa East 4 km/h 8 km/h 91% 0.00 mm 0.00 W/m2
03:44 25.0 °C 23.0 °C 1012.5 hPa East 8 km/h 12 km/h 91% 0.00 mm 0.00 W/m2
03:49 25.0 °C 23.0 °C 1012.4 hPa East 7 km/h 8 km/h 92% 0.00 mm 0.00 W/m2
03:54 25.0 °C 23.0 °C 1012.4 hPa East 4 km/h 4 km/h 92% 0.00 mm 0.00 W/m2
03:59 25.0 °C 23.0 °C 1012.6 hPa East 4 km/h 8 km/h 92% 0.00 mm 0.00 W/m2
04:04 25.0 °C 23.0 °C 1012.6 hPa East 2 km/h 4 km/h 92% 0.00 mm 0.00 W/m2
04:09 25.0 °C 23.0 °C 1012.4 hPa East 1 km/h 4 km/h 92% 0.00 mm 0.00 W/m2
04:14 25.0 °C 23.0 °C 1012.6 hPa East 1 km/h 4 km/h 92% 0.00 mm 0.00 W/m2
04:19 25.0 °C 23.0 °C 1012.6 hPa East 3 km/h 4 km/h 92% 0.00 mm 0.00 W/m2
04:24 25.0 °C 23.0 °C 1012.4 hPa East 4 km/h 4 km/h 92% 0.00 mm 0.00 W/m2
04:29 25.0 °C 24.0 °C 1012.5 hPa East 5 km/h 8 km/h 92% 0.00 mm 0.00 W/m2
04:34 25.0 °C 24.0 °C 1012.5 hPa East 1 km/h 4 km/h 92% 0.00 mm 0.00 W/m2
04:39 25.0 °C 24.0 °C 1012.4 hPa Calm   4 km/h 92% 0.00 mm 0.00 W/m2
04:44 25.0 °C 24.0 °C 1012.6 hPa Calm   4 km/h 91% 0.00 mm 0.00 W/m2
04:49 25.0 °C 24.0 °C 1012.6 hPa Calm     90% 0.00 mm 0.00 W/m2
04:54 25.0 °C 23.0 °C 1012.7 hPa Calm     90% 0.00 mm 0.00 W/m2
04:59 25.0 °C 24.0 °C 1012.8 hPa Calm     90% 0.00 mm 0.00 W/m2
05:04 26.0 °C 24.0 °C 1012.9 hPa East 1 km/h 4 km/h 90% 0.00 mm 0.00 W/m2
05:09 25.0 °C 23.0 °C 1012.8 hPa East 4 km/h 4 km/h 90% 0.00 mm 0.00 W/m2
05:14 25.0 °C 24.0 °C 1012.8 hPa East 4 km/h 4 km/h 90% 0.00 mm 0.00 W/m2
05:19 25.0 °C 23.0 °C 1012.7 hPa East 4 km/h 4 km/h 90% 0.00 mm 0.00 W/m2
05:24 25.0 °C 24.0 °C 1012.8 hPa East 4 km/h 4 km/h 91% 0.00 mm 0.00 W/m2
05:29 25.0 °C 24.0 °C 1012.9 hPa East 3 km/h 4 km/h 91% 0.00 mm 0.00 W/m2
05:34 25.0 °C 24.0 °C 1012.9 hPa East 2 km/h 4 km/h 91% 0.00 mm 0.00 W/m2
05:39 25.0 °C 24.0 °C 1012.9 hPa Calm     91% 0.00 mm 2068.98 W/m2
05:44 25.0 °C 24.0 °C 1012.8 hPa East 1 km/h 4 km/h 91% 0.00 mm 9879.39 W/m2
05:49 26.0 °C 24.0 °C 1013.1 hPa Calm     91% 0.00 mm 13034.59 W/m2
05:54 26.0 °C 24.0 °C 1012.9 hPa East 4 km/h 8 km/h 89% 0.00 mm 13137.83 W/m2
05:59 26.0 °C 24.0 °C 1013.1 hPa East 6 km/h 8 km/h 89% 0.00 mm 12827.28 W/m2
06:04 26.0 °C 24.0 °C 1013.0 hPa East 8 km/h 8 km/h 90% 0.00 mm 13085.70 W/m2
06:14 25.0 °C 24.0 °C 1013.2 hPa East 9 km/h 12 km/h 90% 0.00 mm 13085.50 W/m2
06:19 25.0 °C 24.0 °C 1013.3 hPa East 8 km/h 8 km/h 90% 0.00 mm 12774.95 W/m2
06:24 25.0 °C 24.0 °C 1013.3 hPa East 8 km/h 8 km/h 90% 0.00 mm 12567.85 W/m2
06:29 26.0 °C 24.0 °C 1013.2 hPa East 7 km/h 8 km/h 90% 0.00 mm 12153.85 W/m2
06:34 26.0 °C 24.0 °C 1013.5 hPa East 6 km/h 8 km/h 89% 0.00 mm 6721.97 W/m2
06:39 26.0 °C 24.0 °C 1013.5 hPa East 8 km/h 12 km/h 89% 0.00 mm 11273.12 W/m2
06:42 26.0 °C 24.0 °C 1013.3 hPa East 5 km/h 8 km/h 89% 0.00 mm 3307.14 W/m2
06:49 26.0 °C 24.0 °C 1013.6 hPa East 5 km/h 8 km/h 88% 0.00 mm 12927.90 W/m2
06:54 26.0 °C 24.0 °C 1013.5 hPa East 6 km/h 8 km/h 87% 0.00 mm 12979.43 W/m2
06:59 27.0 °C 24.0 °C 1013.5 hPa East 5 km/h 8 km/h 86% 0.00 mm 12668.27 W/m2
07:04 27.0 °C 24.0 °C 1013.4 hPa East 5 km/h 8 km/h 85% 0.00 mm 12977.81 W/m2
07:09 27.0 °C 24.0 °C 1013.4 hPa East 6 km/h 8 km/h 85% 0.00 mm 12770.10 W/m2
07:14 27.0 °C 24.0 °C 1013.3 hPa East 5 km/h 8 km/h 85% 0.00 mm 12718.18 W/m2
07:19 27.0 °C 24.0 °C 1013.5 hPa East 5 km/h 8 km/h 84% 0.00 mm 13235.02 W/m2
07:24 27.0 °C 24.0 °C 1013.4 hPa East 8 km/h 12 km/h 83% 0.00 mm 12821.22 W/m2
07:29 28.0 °C 24.0 °C 1013.4 hPa East 6 km/h 8 km/h 83% 0.00 mm 13028.93 W/m2
07:34 28.0 °C 25.0 °C 1013.4 hPa East 6 km/h 8 km/h 83% 0.00 mm 12615.13 W/m2
07:39 28.0 °C 25.0 °C 1013.2 hPa East 4 km/h 4 km/h 82% 0.00 mm 12872.74 W/m2
07:49 29.0 °C 25.0 °C 1013.4 hPa East 3 km/h 4 km/h 79% 0.00 mm 13026.50 W/m2
07:54 29.0 °C 25.0 °C 1013.2 hPa East 6 km/h 8 km/h 78% 0.00 mm 11887.15 W/m2
07:59 30.0 °C 25.0 °C 1013.1 hPa East 3 km/h 4 km/h 79% 0.00 mm 12973.57 W/m2
08:04 30.0 °C 25.0 °C 1013.2 hPa East 6 km/h 8 km/h 77% 0.00 mm 12766.27 W/m2
08:09 30.0 °C 25.0 °C 1013.2 hPa East 9 km/h 12 km/h 78% 0.00 mm 12973.16 W/m2
08:14 29.0 °C 25.0 °C 1013.1 hPa East 9 km/h 12 km/h 78% 0.00 mm 13180.06 W/m2
08:19 29.0 °C 25.0 °C 1013.3 hPa East 9 km/h 12 km/h 77% 0.00 mm 12506.03 W/m2
08:24 30.0 °C 25.0 °C 1013.3 hPa East 8 km/h 12 km/h 77% 0.00 mm 13075.00 W/m2
08:29 30.0 °C 25.0 °C 1013.2 hPa East 9 km/h 12 km/h 77% 0.00 mm 11885.13 W/m2
08:34 30.0 °C 25.0 °C 1013.3 hPa East 8 km/h 8 km/h 75% 0.00 mm 13126.11 W/m2
08:39 31.0 °C 25.0 °C 1013.4 hPa East 9 km/h 12 km/h 74% 0.00 mm 12712.32 W/m2
08:44 30.0 °C 25.0 °C 1013.2 hPa East 13 km/h 16 km/h 74% 0.00 mm 13229.56 W/m2
08:49 31.0 °C 25.0 °C 1013.3 hPa East 12 km/h 16 km/h 74% 0.00 mm 12556.94 W/m2
08:54 31.0 °C 25.0 °C 1013.3 hPa East 10 km/h 12 km/h 73% 0.00 mm 8780.24 W/m2
08:59 31.0 °C 25.0 °C 1013.2 hPa East 9 km/h 12 km/h 73% 0.00 mm 13228.35 W/m2
09:04 31.0 °C 25.0 °C 1013.3 hPa East 11 km/h 12 km/h 72% 0.00 mm 10538.88 W/m2
09:09 31.0 °C 25.0 °C 1013.1 hPa East 10 km/h 16 km/h 72% 0.00 mm 12917.60 W/m2
09:14 31.0 °C 26.0 °C 1013.1 hPa East 12 km/h 16 km/h 72% 0.00 mm 12296.90 W/m2
09:19 31.0 °C 25.0 °C 1013.3 hPa East 9 km/h 12 km/h 72% 0.00 mm 13227.74 W/m2
09:24 31.0 °C 26.0 °C 1013.2 hPa East 8 km/h 12 km/h 73% 0.00 mm 12969.12 W/m2
09:29 32.0 °C 26.0 °C 1013.2 hPa East 11 km/h 12 km/h 72% 0.00 mm 11365.26 W/m2
09:34 32.0 °C 26.0 °C 1013.1 hPa East 6 km/h 12 km/h 71% 0.00 mm 12916.59 W/m2
09:39 31.0 °C 26.0 °C 1013.0 hPa East 10 km/h 12 km/h 73% 0.00 mm 13175.82 W/m2
09:44 32.0 °C 26.0 °C 1013.1 hPa East 7 km/h 12 km/h 73% 0.00 mm 12968.11 W/m2
09:49 32.0 °C 26.0 °C 1013.1 hPa East 11 km/h 12 km/h 74% 0.00 mm 11934.83 W/m2
09:54 32.0 °C 26.0 °C 1012.9 hPa East 13 km/h 16 km/h 74% 0.00 mm 12559.77 W/m2
09:59 32.0 °C 26.0 °C 1012.9 hPa East 13 km/h 16 km/h 73% 0.00 mm 12357.32 W/m2
10:03 31.0 °C 26.0 °C 1012.9 hPa East 8 km/h 12 km/h 74% 0.00 mm 8468.88 W/m2
10:05 31.0 °C 26.0 °C 1012.5 hPa East 8 km/h 8 km/h 73% 0.00 mm 1277.76 W/m2
10:14 32.0 °C 26.0 °C 1012.8 hPa East 7 km/h 8 km/h 71% 0.00 mm 12455.72 W/m2
10:19 32.0 °C 26.0 °C 1012.8 hPa East 13 km/h 16 km/h 72% 0.00 mm 12666.65 W/m2
10:24 32.0 °C 26.0 °C 1012.7 hPa East 10 km/h 12 km/h 72% 0.00 mm 12253.26 W/m2
10:29 32.0 °C 26.0 °C 1012.8 hPa East 5 km/h 12 km/h 72% 0.00 mm 12357.32 W/m2
10:34 32.0 °C 26.0 °C 1012.9 hPa East 6 km/h 8 km/h 72% 0.00 mm 13134.40 W/m2
10:39 31.0 °C 26.0 °C 1013.0 hPa East 6 km/h 8 km/h 72% 0.00 mm 13186.12 W/m2
10:44 32.0 °C 26.0 °C 1012.9 hPa East 5 km/h 8 km/h 72% 0.00 mm 12410.05 W/m2
10:49 32.0 °C 26.0 °C 1012.9 hPa East 4 km/h 8 km/h 73% 0.00 mm 13080.85 W/m2
10:54 32.0 °C 26.0 °C 1012.8 hPa East 10 km/h 16 km/h 72% 0.00 mm 12707.67 W/m2
10:59 32.0 °C 26.0 °C 1012.8 hPa East 8 km/h 12 km/h 72% 0.00 mm 13018.42 W/m2
11:04 33.0 °C 27.0 °C 1012.8 hPa East 7 km/h 12 km/h 70% 0.00 mm 12448.85 W/m2
11:09 33.0 °C 27.0 °C 1012.6 hPa East 5 km/h 8 km/h 69% 0.00 mm 12861.83 W/m2
11:14 33.0 °C 27.0 °C 1012.6 hPa East 10 km/h 12 km/h 69% 0.00 mm 12706.66 W/m2
11:19 33.0 °C 27.0 °C 1012.7 hPa East 6 km/h 12 km/h 69% 0.00 mm 12965.48 W/m2
11:24 33.0 °C 27.0 °C 1012.6 hPa East 9 km/h 16 km/h 70% 0.00 mm 12965.28 W/m2
11:29 33.0 °C 27.0 °C 1012.6 hPa East 8 km/h 12 km/h 70% 0.00 mm 13223.91 W/m2
11:34 33.0 °C 27.0 °C 1012.6 hPa East 13 km/h 16 km/h 71% 0.00 mm 13068.73 W/m2
11:39 33.0 °C 27.0 °C 1012.8 hPa East 13 km/h 16 km/h 71% 0.00 mm 8102.57 W/m2
11:44 33.0 °C 27.0 °C 1012.5 hPa East 7 km/h 12 km/h 70% 0.00 mm 12395.71 W/m2
11:49 33.0 °C 27.0 °C 1012.7 hPa East 13 km/h 16 km/h 70% 0.00 mm 13171.78 W/m2
11:54 34.0 °C 27.0 °C 1012.4 hPa East 10 km/h 16 km/h 71% 0.00 mm 12447.43 W/m2
11:59 34.0 °C 27.0 °C 1012.6 hPa East 9 km/h 12 km/h 69% 0.00 mm 12861.03 W/m2
12:04 34.0 °C 27.0 °C 1012.6 hPa East 9 km/h 12 km/h 70% 0.00 mm 13016.81 W/m2
12:09 34.0 °C 27.0 °C 1012.4 hPa East 8 km/h 12 km/h 70% 0.00 mm 12705.45 W/m2
12:14 34.0 °C 27.0 °C 1012.3 hPa East 9 km/h 12 km/h 68% 0.00 mm 13222.69 W/m2
12:19 34.0 °C 27.0 °C 1012.3 hPa East 9 km/h 12 km/h 68% 0.00 mm 13223.70 W/m2
12:24 34.0 °C 27.0 °C 1012.2 hPa East 12 km/h 16 km/h 68% 0.00 mm 11464.06 W/m2
12:29 34.0 °C 27.0 °C 1012.2 hPa East 10 km/h 16 km/h 69% 0.00 mm 13222.69 W/m2
12:34 34.0 °C 27.0 °C 1012.0 hPa East 7 km/h 12 km/h 69% 0.00 mm 12964.07 W/m2
12:39 34.0 °C 27.0 °C 1011.9 hPa East 18 km/h 24 km/h 70% 0.00 mm 12652.71 W/m2
12:44 34.0 °C 27.0 °C 1011.9 hPa East 6 km/h 8 km/h 68% 0.00 mm 9497.72 W/m2
12:49 34.0 °C 27.0 °C 1011.8 hPa East 9 km/h 12 km/h 67% 0.00 mm 12187.39 W/m2
12:54 34.0 °C 27.0 °C 1011.8 hPa East 10 km/h 12 km/h 68% 0.00 mm 12860.22 W/m2
12:59 34.0 °C 27.0 °C 1011.6 hPa East 13 km/h 16 km/h 68% 0.00 mm 11100.98 W/m2
13:04 34.0 °C 27.0 °C 1011.6 hPa East 10 km/h 16 km/h 69% 0.00 mm 10739.11 W/m2
13:09 35.0 °C 27.0 °C 1011.3 hPa East 13 km/h 16 km/h 67% 0.00 mm 11877.05 W/m2
13:14 35.0 °C 27.0 °C 1011.2 hPa East 9 km/h 12 km/h 65% 0.00 mm 13014.99 W/m2
13:19 35.0 °C 27.0 °C 1011.0 hPa East 6 km/h 8 km/h 64% 0.00 mm 9550.45 W/m2
13:24 35.0 °C 27.0 °C 1011.1 hPa East 13 km/h 16 km/h 65% 0.00 mm 12498.15 W/m2
13:29 35.0 °C 27.0 °C 1010.9 hPa East 8 km/h 12 km/h 64% 0.00 mm 13066.51 W/m2
13:34 35.0 °C 27.0 °C 1010.8 hPa East 11 km/h 16 km/h 64% 0.00 mm 12549.26 W/m2
13:39 35.0 °C 27.0 °C 1010.6 hPa East 15 km/h 16 km/h 64% 0.00 mm 12600.58 W/m2
13:44 35.0 °C 27.0 °C 1010.5 hPa East 17 km/h 20 km/h 65% 0.00 mm 13066.91 W/m2
13:49 35.0 °C 27.0 °C 1010.5 hPa East 18 km/h 20 km/h 66% 0.00 mm 13015.59 W/m2
13:54 35.0 °C 27.0 °C 1010.5 hPa East 19 km/h 24 km/h 66% 0.00 mm 13222.90 W/m2
13:59 35.0 °C 27.0 °C 1010.6 hPa East 16 km/h 20 km/h 66% 0.00 mm 12864.06 W/m2
14:04 35.0 °C 27.0 °C 1010.6 hPa East 13 km/h 16 km/h 65% 0.00 mm 12293.27 W/m2
14:09 35.0 °C 27.0 °C 1010.3 hPa East 13 km/h 16 km/h 63% 0.00 mm 13070.55 W/m2
14:14 36.0 °C 27.0 °C 1010.3 hPa East 7 km/h 12 km/h 63% 0.00 mm 12603.82 W/m2
14:19 35.0 °C 27.0 °C 1010.3 hPa East 8 km/h 12 km/h 63% 0.00 mm 12346.20 W/m2
14:24 36.0 °C 27.0 °C 1010.4 hPa East 9 km/h 12 km/h 62% 0.00 mm 12710.50 W/m2
14:29 36.0 °C 27.0 °C 1010.3 hPa East 13 km/h 20 km/h 61% 0.00 mm 13170.97 W/m2
14:34 36.0 °C 27.0 °C 1010.1 hPa East 13 km/h 20 km/h 62% 0.00 mm 12973.77 W/m2
14:39 35.0 °C 27.0 °C 1010.3 hPa East 7 km/h 12 km/h 63% 0.00 mm 12770.31 W/m2
14:44 35.0 °C 26.0 °C 1010.2 hPa East 8 km/h 8 km/h 64% 0.00 mm 11375.36 W/m2
14:49 34.0 °C 26.0 °C 1010.0 hPa East 8 km/h 12 km/h 65% 0.00 mm 13237.65 W/m2
14:54 34.0 °C 26.0 °C 1009.8 hPa East 8 km/h 12 km/h 66% 0.00 mm 13237.65 W/m2
14:59 33.0 °C 26.0 °C 1009.7 hPa East 6 km/h 12 km/h 66% 0.00 mm 12513.70 W/m2
15:04 33.0 °C 26.0 °C 1009.9 hPa East 5 km/h 8 km/h 67% 0.00 mm 12307.21 W/m2
15:09 33.0 °C 26.0 °C 1009.9 hPa East 7 km/h 8 km/h 68% 0.00 mm 12928.31 W/m2
15:14 33.0 °C 26.0 °C 1009.9 hPa East 6 km/h 12 km/h 67% 0.00 mm 12669.69 W/m2
15:18 33.0 °C 26.0 °C 1010.2 hPa East 6 km/h 8 km/h 68% 0.00 mm 13238.86 W/m2
15:24 33.0 °C 26.0 °C 1009.9 hPa East 4 km/h 4 km/h 68% 0.00 mm 13187.34 W/m2
15:29 33.0 °C 26.0 °C 1009.9 hPa East 6 km/h 8 km/h 68% 0.00 mm 12462.99 W/m2
15:34 33.0 °C 26.0 °C 1010.0 hPa East 9 km/h 12 km/h 69% 0.00 mm 11117.95 W/m2
15:39 33.0 °C 26.0 °C 1010.0 hPa East 8 km/h 8 km/h 69% 0.00 mm 13238.86 W/m2
15:44 33.0 °C 26.0 °C 1010.1 hPa East 5 km/h 8 km/h 69% 0.00 mm 12669.48 W/m2
15:49 33.0 °C 26.0 °C 1010.2 hPa East 2 km/h 4 km/h 69% 0.00 mm 13186.73 W/m2
15:54 33.0 °C 27.0 °C 1010.3 hPa East 5 km/h 8 km/h 69% 0.00 mm 9980.21 W/m2
15:59 33.0 °C 27.0 °C 1010.4 hPa East 7 km/h 8 km/h 70% 0.00 mm 12722.02 W/m2
16:04 33.0 °C 27.0 °C 1010.5 hPa East 7 km/h 12 km/h 73% 0.00 mm 12204.77 W/m2
16:09 32.0 °C 27.0 °C 1010.4 hPa East 10 km/h 12 km/h 74% 0.00 mm 12204.97 W/m2
16:14 32.0 °C 27.0 °C 1010.6 hPa East 10 km/h 12 km/h 75% 0.00 mm 12929.32 W/m2
16:19 31.0 °C 26.0 °C 1010.6 hPa East 9 km/h 12 km/h 76% 0.00 mm 12412.68 W/m2
16:24 31.0 °C 26.0 °C 1010.6 hPa East 8 km/h 12 km/h 76% 0.00 mm 6257.46 W/m2
16:29 31.0 °C 26.0 °C 1010.5 hPa East 9 km/h 12 km/h 76% 0.00 mm 12516.13 W/m2
16:34 31.0 °C 26.0 °C 1010.6 hPa East 6 km/h 8 km/h 75% 0.00 mm 13136.62 W/m2
16:39 31.0 °C 26.0 °C 1010.8 hPa East 12 km/h 16 km/h 78% 0.00 mm 12929.32 W/m2
16:44 31.0 °C 26.0 °C 1010.8 hPa East 9 km/h 12 km/h 79% 0.00 mm 12774.15 W/m2
16:49 31.0 °C 27.0 °C 1010.8 hPa East 8 km/h 8 km/h 79% 0.00 mm 12981.25 W/m2
16:54 31.0 °C 26.0 °C 1010.7 hPa East 8 km/h 12 km/h 78% 0.00 mm 12878.00 W/m2
16:58 31.0 °C 26.0 °C 1010.8 hPa East 6 km/h 8 km/h 78% 0.00 mm 13033.37 W/m2
17:04 31.0 °C 26.0 °C 1010.6 hPa East 1 km/h 4 km/h 77% 0.00 mm 12515.93 W/m2
17:09 31.0 °C 27.0 °C 1010.6 hPa East 3 km/h 4 km/h 77% 0.00 mm 11998.28 W/m2
17:14 31.0 °C 27.0 °C 1010.6 hPa East 6 km/h 8 km/h 77% 0.00 mm 11273.93 W/m2
17:19 32.0 °C 27.0 °C 1010.9 hPa East 1 km/h 4 km/h 76% 0.00 mm 13136.22 W/m2
17:24 32.0 °C 27.0 °C 1011.1 hPa East 5 km/h 8 km/h 77% 0.00 mm 5739.61 W/m2
17:29 31.0 °C 27.0 °C 1011.4 hPa East 6 km/h 8 km/h 77% 0.00 mm 12981.25 W/m2
17:34 31.0 °C 27.0 °C 1011.4 hPa East 2 km/h 4 km/h 77% 0.00 mm 13136.82 W/m2
17:39 31.0 °C 27.0 °C 1011.3 hPa East 4 km/h 8 km/h 76% 0.00 mm 12464.20 W/m2
17:44 31.0 °C 27.0 °C 1011.7 hPa East 4 km/h 8 km/h 78% 0.00 mm 12309.84 W/m2
17:49 31.0 °C 27.0 °C 1011.7 hPa East 6 km/h 8 km/h 78% 0.00 mm 13034.38 W/m2
17:54 31.0 °C 26.0 °C 1011.6 hPa East 5 km/h 8 km/h 79% 0.00 mm 12879.41 W/m2
17:59 31.0 °C 27.0 °C 1011.8 hPa East 5 km/h 8 km/h 79% 0.00 mm 10603.53 W/m2
18:04 31.0 °C 27.0 °C 1012.1 hPa East 19 km/h 24 km/h 80% 0.00 mm 3620.72 W/m2
18:09 30.0 °C 26.0 °C 1012.1 hPa East 20 km/h 24 km/h 81% 0.00 mm 103.45 W/m2
18:14 30.0 °C 26.0 °C 1012.1 hPa East 20 km/h 24 km/h 81% 0.00 mm 0.00 W/m2
18:19 29.0 °C 26.0 °C 1012.1 hPa East 18 km/h 24 km/h 82% 0.00 mm 0.00 W/m2
18:24 29.0 °C 25.0 °C 1012.3 hPa East 15 km/h 20 km/h 82% 0.00 mm 0.00 W/m2
18:29 29.0 °C 25.0 °C 1012.5 hPa East 21 km/h 32 km/h 82% 0.00 mm 0.00 W/m2
18:34 29.0 °C 25.0 °C 1012.4 hPa East 18 km/h 24 km/h 84% 8.99 mm 0.00 W/m2
18:39 28.0 °C 26.0 °C 1012.6 hPa East 6 km/h 12 km/h 90% 21.59 mm 0.00 W/m2
18:42 28.0 °C 26.0 °C 1012.5 hPa East 3 km/h 4 km/h 90% 25.20 mm 0.00 W/m2
18:49 27.0 °C 25.0 °C 1012.5 hPa East 2 km/h 4 km/h 92% 19.81 mm 0.00 W/m2
18:54 27.0 °C 26.0 °C 1012.6 hPa East 6 km/h 8 km/h 92% 14.40 mm 0.00 W/m2
18:59 27.0 °C 26.0 °C 1012.5 hPa East 7 km/h 8 km/h 92% 1.80 mm 0.00 W/m2
19:04 27.0 °C 26.0 °C 1012.7 hPa East 1 km/h 4 km/h 93% 3.61 mm 0.00 W/m2
19:09 27.0 °C 25.0 °C 1012.6 hPa East 3 km/h 4 km/h 92% 5.41 mm 0.00 W/m2
19:14 27.0 °C 25.0 °C 1012.6 hPa East 4 km/h 4 km/h 92% 3.61 mm 0.00 W/m2
19:19 27.0 °C 25.0 °C 1012.3 hPa Calm   4 km/h 91% 1.80 mm 0.00 W/m2
19:24 27.0 °C 25.0 °C 1012.3 hPa Calm   4 km/h 91% 0.00 mm 0.00 W/m2
19:29 27.0 °C 26.0 °C 1012.6 hPa Calm     93% 0.00 mm 0.00 W/m2
19:34 27.0 °C 26.0 °C 1012.9 hPa Calm     92% 0.00 mm 0.00 W/m2
19:39 27.0 °C 25.0 °C 1013.0 hPa Calm     91% 0.00 mm 0.00 W/m2
19:44 27.0 °C 26.0 °C 1013.0 hPa East 3 km/h 4 km/h 92% 0.00 mm 0.00 W/m2
19:49 27.0 °C 26.0 °C 1012.9 hPa East 5 km/h 8 km/h 93% 0.00 mm 0.00 W/m2
19:54 27.0 °C 26.0 °C 1013.0 hPa East 1 km/h 4 km/h 93% 0.00 mm 0.00 W/m2
19:59 27.0 °C 26.0 °C 1013.1 hPa Calm     93% 0.00 mm 0.00 W/m2
20:04 27.0 °C 26.0 °C 1013.3 hPa Calm     92% 0.00 mm 0.00 W/m2
20:09 27.0 °C 26.0 °C 1013.3 hPa Calm     92% 0.00 mm 0.00 W/m2
20:14 27.0 °C 26.0 °C 1013.4 hPa Calm     92% 0.00 mm 0.00 W/m2
20:19 28.0 °C 26.0 °C 1013.3 hPa East 2 km/h 4 km/h 92% 0.00 mm 0.00 W/m2
20:24 28.0 °C 26.0 °C 1013.1 hPa East 1 km/h 4 km/h 91% 0.00 mm 0.00 W/m2
20:29 28.0 °C 26.0 °C 1013.0 hPa East 3 km/h 4 km/h 90% 0.00 mm 0.00 W/m2
20:34 28.0 °C 26.0 °C 1013.2 hPa East 3 km/h 4 km/h 90% 0.00 mm 0.00 W/m2
20:39 28.0 °C 26.0 °C 1013.5 hPa East 3 km/h 4 km/h 89% 0.00 mm 0.00 W/m2
20:44 28.0 °C 25.0 °C 1013.4 hPa East 3 km/h 4 km/h 88% 0.00 mm 0.00 W/m2
20:49 28.0 °C 26.0 °C 1013.4 hPa Calm   4 km/h 88% 0.00 mm 0.00 W/m2
20:54 28.0 °C 26.0 °C 1013.5 hPa Calm   4 km/h 88% 0.00 mm 0.00 W/m2
20:59 28.0 °C 25.0 °C 1013.5 hPa East 2 km/h 4 km/h 88% 0.00 mm 0.00 W/m2
21:04 28.0 °C 26.0 °C 1013.6 hPa Calm   4 km/h 88% 0.00 mm 0.00 W/m2
21:09 28.0 °C 26.0 °C 1013.7 hPa Calm     88% 0.00 mm 0.00 W/m2
21:14 28.0 °C 26.0 °C 1013.7 hPa Calm   4 km/h 87% 0.00 mm 0.00 W/m2
21:19 28.0 °C 25.0 °C 1013.9 hPa East 1 km/h 4 km/h 87% 0.00 mm 0.00 W/m2
21:24 28.0 °C 25.0 °C 1014.0 hPa Calm   4 km/h 87% 0.00 mm 0.00 W/m2
21:29 28.0 °C 25.0 °C 1013.9 hPa Calm   4 km/h 87% 0.00 mm 0.00 W/m2
21:34 28.0 °C 26.0 °C 1013.8 hPa Calm     88% 0.00 mm 0.00 W/m2
21:39 28.0 °C 26.0 °C 1013.7 hPa Calm     88% 0.00 mm 0.00 W/m2
21:44 28.0 °C 26.0 °C 1013.7 hPa Calm   4 km/h 88% 0.00 mm 0.00 W/m2
21:49 28.0 °C 26.0 °C 1013.7 hPa Calm   4 km/h 87% 0.00 mm 0.00 W/m2
21:54 28.0 °C 26.0 °C 1013.9 hPa Calm     87% 0.00 mm 0.00 W/m2
21:59 28.0 °C 26.0 °C 1013.9 hPa Calm     88% 0.00 mm 0.00 W/m2
22:04 28.0 °C 26.0 °C 1013.8 hPa Calm     88% 0.00 mm 0.00 W/m2
22:09 28.0 °C 26.0 °C 1013.9 hPa Calm     88% 0.00 mm 0.00 W/m2
22:14 28.0 °C 26.0 °C 1013.9 hPa Calm     88% 0.00 mm 0.00 W/m2
22:19 28.0 °C 26.0 °C 1013.7 hPa Calm     88% 0.00 mm 0.00 W/m2
22:24 28.0 °C 26.0 °C 1013.6 hPa East 1 km/h 4 km/h 88% 0.00 mm 0.00 W/m2
22:29 28.0 °C 26.0 °C 1013.7 hPa Calm     87% 0.00 mm 0.00 W/m2
22:34 28.0 °C 26.0 °C 1013.7 hPa East 2 km/h 4 km/h 87% 0.00 mm 0.00 W/m2
22:39 28.0 °C 26.0 °C 1014.1 hPa East 3 km/h 4 km/h 87% 0.00 mm 0.00 W/m2
22:44 28.0 °C 26.0 °C 1013.9 hPa East 5 km/h 8 km/h 89% 0.00 mm 0.00 W/m2
22:49 28.0 °C 26.0 °C 1013.7 hPa East 4 km/h 8 km/h 90% 0.00 mm 0.00 W/m2
22:54 28.0 °C 26.0 °C 1013.7 hPa East 5 km/h 8 km/h 90% 0.00 mm 0.00 W/m2
22:59 28.0 °C 26.0 °C 1013.7 hPa East 6 km/h 8 km/h 89% 0.00 mm 0.00 W/m2
23:04 28.0 °C 25.0 °C 1013.7 hPa East 1 km/h 4 km/h 89% 0.00 mm 0.00 W/m2
23:09 28.0 °C 25.0 °C 1013.8 hPa East 4 km/h 4 km/h 87% 0.00 mm 0.00 W/m2
23:14 28.0 °C 25.0 °C 1013.8 hPa East 5 km/h 8 km/h 87% 0.00 mm 0.00 W/m2
23:19 28.0 °C 25.0 °C 1013.8 hPa East 5 km/h 8 km/h 88% 0.00 mm 0.00 W/m2
23:24 28.0 °C 25.0 °C 1013.7 hPa East 4 km/h 4 km/h 88% 0.00 mm 0.00 W/m2
23:29 28.0 °C 26.0 °C 1013.7 hPa East 4 km/h 4 km/h 89% 0.00 mm 0.00 W/m2
23:34 27.0 °C 26.0 °C 1013.5 hPa East 6 km/h 8 km/h 90% 0.00 mm 0.00 W/m2
23:39 27.0 °C 26.0 °C 1013.4 hPa East 9 km/h 12 km/h 90% 0.00 mm 0.00 W/m2
23:44 27.0 °C 26.0 °C 1013.4 hPa East 12 km/h 16 km/h 90% 0.00 mm 0.00 W/m2
23:49 27.0 °C 25.0 °C 1013.3 hPa East 8 km/h 16 km/h 89% 0.00 mm 0.00 W/m2
23:54 27.0 °C 25.0 °C 1013.1 hPa East 6 km/h 8 km/h 89% 0.00 mm 0.00 W/m2
23:59 27.0 °C 25.0 °C 1013.2 hPa East 5 km/h 8 km/h 89% 0.00 mm 0.00 W/m2
PIMOHWEATHER Philippines
Compliments of Weather Underground - 2 mb